Current Version              Previous Version:    01  02  03  04  05  06  07  08  09  10  11  12  13  14  15  16  17  18  19  20  21  22  23  24  25  26  27  28  29  30  
   31  32  33  34  35  36  37  38  39  40  41  42  43  44  45  46  47  48  49  50  51  52  53  54  55  56  57  58  59  60  

[Printable]
361
ASUS44 KLUB 280501
RWRTX
WEST TEXAS WEATHER ROUNDUP
NATIONAL WEATHER SERVICE LUBBOCK TX
1100 PM CST THU NOV 27 2014

NOTE: "FAIR" INDICATES FEW OR NO CLOUDS BELOW 12,000 FEET WITH NO
SIGNIFICANT WEATHER AND/OR OBSTRUCTIONS TO VISIBILITY.

TXZ004-006>008-010-012-014-016-OKZ002-280600-
TEXAS PANHANDLE/OKLAHOMA PANHANDLE

CITY           SKY/WX    TMP DP  RH WIND       PRES   REMARKS
AMARILLO       PTCLDY    42  30  62 S14       30.20F
BORGER         MOCLDY    50  29  44 SW9       30.17S
CANADIAN       CLEAR     44  31  59 SW9       30.17F
DALHART        CLOUDY    42  27  55 SW10      30.16F
DUMAS            N/A     46  28  49 SW14      30.15F
GUYMON         PTCLDY    44  28  53 S12       30.10F
HEREFORD       PTCLDY    44  31  60 MISG      30.22F
$$

TXZ026-029-035-045-048-280600-
SOUTHERN PANHANDLE/SOUTH PLAINS/ROLLING PLAINS

CITY           SKY/WX    TMP DP  RH WIND       PRES   REMARKS
CHILDRESS      CLEAR     40  29  64 S7        30.25S
LUBBOCK        CLEAR     47  28  47 SW10      30.26S
$$

TXZ052-054-060>062-072-078-127-140-154-169-280600-
PERMIAN BASIN/CONCHO VALLEY/BIG COUNTRY/EDWARDS PLATEAU

CITY           SKY/WX    TMP DP  RH WIND       PRES   REMARKS
ABILENE        CLEAR     50  31  48 S12       30.30F
JUNCTION       CLEAR     48  32  53 CALM      30.37S
MIDLAND        CLEAR     49  30  48 S9        30.30R
ODESSA         CLEAR     49  29  46 S12       30.31R
SAN ANGELO     CLEAR     48  34  58 S9        30.32S
WINK           CLEAR     47  28  47 SE8       30.28R
$$

TXZ055-058-074-075-080-082-280600-
FAR WEST/SOUTHWEST MOUNTAINS/TRANS PECOS

CITY           SKY/WX    TMP DP  RH WIND       PRES   REMARKS
ALPINE         CLEAR     44  24  45 CALM      30.40S
DRYDEN           N/A     48  36  63 NE5       30.32S
EL PASO        CLEAR     48  21  34 CALM      30.30R
FORT STOCKTON  CLEAR     50  33  52 S14       30.30F
MARFA          PTCLDY    30  18  59 NW5       30.38S WCI  25
$$

TXZ014-016-019-021>030-083-280600
TEXAS TECH WEST TEXAS MESONET/TEXAS PANHANDLE/NORTHERN SOUTH PLAINS

CITY           SKY/WX    TMP DP  RH WIND       PRES   REMARKS
ABERNATHY 5ENE   N/A     36  30  80 S8        30.26F WCI  29
AMARILLO 9NNE    N/A     50  30  46 S10       30.19F
AMARILLO 7SSE    N/A     44  30  56 SW14      30.21F
AMHERST 1NE      N/A     41  28  59 SW9       30.26S
BOOTLEG 11WNW    N/A     44  27  51 SW17      30.23F
CANADIAN 6E      N/A     42  28  56 S9        30.17F
CAPROCK CYN SP   N/A     46  32  58 S8        30.23R
CHILDRESS 2NNE   N/A     38  29  71 S9        30.24S WCI  31
CLARENDON 2WSW   N/A     43  30  58 S14       30.20F
CLAUDE 12SW      N/A     50  29  45 SW14      30.22F
DIMMITT 2NE      N/A     42  28  57 SW15      30.23S
FLOYDADA 2NNE    N/A     42  31  63 S13       30.24F
FRIONA 2NE       N/A     43  26  51 SW12      30.24F
GOODLETT 3W      N/A     38  29  70 S6        30.25S WCI  34
HART 3N          N/A     37  28  71 SW9       30.24F WCI  30
HEREFORD 2NW     N/A     43  27  54 SW10      30.21F
MCLEAN 1E        N/A     40  28  62 S13       30.18F WCI  32
MEMPHIS 1NE      N/A     34  26  71 CALM      30.24F
MULESHOE 2SSW    N/A     31  24  77 W5        30.25F WCI  26
OLTON 6S         N/A     37  28  70 SW9       30.25F WCI  30
PALO DURO SP     N/A     46  29  51 S7        30.23F
PAMPA 2E         N/A     40  30  67 S9        30.18F WCI  34
PLAINVIEW 1S     N/A     42  31  65 SW13      30.23F
SILVERTON 7ESE   N/A     42  31  64 SW12      30.23S
TULIA 2ENE       N/A     42  31  62 SW14      30.22F
TURKEY 2WSW      N/A     38  29  70 S3        30.22F
UMBARGER 3NNE    N/A     43  28  55 SW17      30.20F
$$

TXZ033>036-039>041-045>048-280600
TEXAS TECH WEST TEXAS MESONET/SOUTH PLAINS

CITY           SKY/WX    TMP DP  RH WIND       PRES   REMARKS
AIKEN 3WSW       N/A     38  31  75 S10       30.24F WCI  31
ANTON 6SSW       N/A     42  30  62 S10       30.26F
BROWNFIELD 2S    N/A     44  28  54 S10       30.27S
DENVR CTY 7WNW   N/A     37  27  65 SW7       30.28S WCI  32
GAIL 2ESE        N/A     40  32  73 S7        30.28S
LAMESA 2SE       N/A     38  31  74 S8        30.29F WCI  33
LEVELLAND 4S     N/A     41  28  57 S9        30.26F
LUBBOCK 3WNW     N/A     48  28  45 S10       30.26S
MORTON 1ENE      N/A     44  28  54 SW9       30.26S
ODONNELL 1N      N/A     43  31  62 S8        30.28S
PLAINS 3N        N/A     39  27  62 SW7       30.28S WCI  34
RALLS 1SE        N/A     42  31  64 S8        30.27S
REESE CENTER     N/A     40  29  63 S8        30.26S WCI  35
SEAGRAVES 1SW    N/A     39  28  65 SW6       30.28F WCI  35
SEMINOLE 2NNE    N/A     46  28  50 S12       30.28F
SLATON 2NE       N/A     44  32  64 S14       30.26F
SNYDER 3E        N/A     42  33  68 S10       30.28S
SUNDOWN 8SW      N/A     38  27  64 SW9       30.27S WCI  32
TAHOKA 3NNE      N/A     42  32  66 S9        30.27S
WOLFFORTH 6SSW   N/A     45  29  53 S10       30.26F
$$

TXZ031-032-036>038-042>044-280600-
TEXAS TECH WEST TEXAS MESONET/ROLLING PLAINS

CITY           SKY/WX    TMP DP  RH WIND       PRES   REMARKS
ASPERMONT 3NE    N/A     41  33  72 S6        30.28S
GRAHAM 5SSW      N/A     48  31  50 S8        30.27F
GUTHRIE 10WSW    N/A     42  31  64 S10       30.24F
HASKELL 1NW      N/A     45  32  59 S8        30.28S
JAYTON 1SSE      N/A     40  31  70 SW6       30.27F
KNOX CITY 3NW    N/A     42  33  71 S8        30.28S
LK A HENRY 1NW   N/A     49  32  52 S9        30.27S
NORTHFIELD 1S    N/A     42  31  64 S3        30.24S
ODELL 4ENE       N/A     41  31  67 SE12      30.26F
PADUCAH 10SW     N/A     44  31  62 S13       30.24S
POST 1NE         N/A     48  31  52 S8        30.27S
RRING SPRGS 3N   N/A     46  32  59 S13       30.23S
SEYMOUR 3NW      N/A     44  31  60 S8        30.28F
SPUR 1W          N/A     39  30  70 SW7       30.26F WCI  34
WEINERT 2NNE     N/A     43  33  66 S9        30.28S
WHITE RVR 6NE    N/A     43  31  63 S10       30.26F
$$

TXZ052-054-060>062-072-078-127-140-154-169-280600-
TEXAS TECH WEST TEXAS MESONET/PERMIAN BASIN/
CONCHO VALLEY/BIG COUNTRY/EDWARDS PLATEAU

CITY           SKY/WX    TMP DP  RH WIND       PRES   REMARKS
COYANOSA 2N      N/A     46  30  53 SE8       30.29S
JUNCTION 1SSW    N/A     44  30  59 S1        30.37F
MERTZON 3NNE     N/A     46  32  58 S5        30.33F
SAN ANGELO 7NW   N/A     44  32  60 S3        30.33S
STRLNG CT 4WSW   N/A     49  31  50 S8        30.32S
ST LAWRNCE 5SW   N/A     44  29  55 S8        30.31S
SWEETWATR 11SW   N/A     48  32  55 S12       30.31S
WALL 1E          N/A     48  32  54 S6        30.33S
$$

TXZ055-058-074-075-080-082-280600-
TEXAS TECH WEST TEXAS MESONET/FAR WEST/SOUTHWEST MOUNTAINS/TRANS PECOS

CITY           SKY/WX    TMP DP  RH WIND       PRES   REMARKS
PRSMN GAP BBNP   N/A     55  33  44 N13       30.33S
GUADLPE MTN NP   N/A     52  17  25 W10       30.34S
$$